Regional Weather Roundup
Issued by NWS

Home | Current Version | Previous Version | Text Only | Print | Product List | Glossary On
Versions: 1 2 3 4 5 6 7 8 9 10 11 12 13 14 15 16 17 18 19 20 21 22 23 24 25 26 27
000
ASUS45 KREV 230010
RWRNV
NEVADA REGIONAL WEATHER ROUNDUP
NATIONAL WEATHER SERVICE RENO NV
500 PM PDT WED OCT 22 2014

NOTE: "FAIR" INDICATES FEW OR NO CLOUDS BELOW 12,000 FEET WITH NO
SIGNIFICANT WEATHER AND/OR OBSTRUCTIONS TO VISIBILITY.

NVZ001-003-004-230100-
WESTERN NEVADA

CITY           SKY/WX    TMP DP  RH WIND       PRES   REMARKS
RENO           PTSUNNY   70  28  21 E3        30.04F
6HR MIN TEMP:  53; 6HR MAX TEMP:  71;

CARSON CITY    FAIR      70  28  21 NW10      30.06F
MINDEN         FAIR      72  28  20 W8        30.06
SLIDE MTN        N/A     45  27  49 W24         N/A
PYRAMID LAKE     N/A     63 N/A N/A N2          N/A
FALLON         CLOUDY    65  21  18 NE9       30.04F
6HR MIN TEMP:  58; 6HR MAX TEMP:  70;

LOVELOCK       MOSUNNY   66  22  18 CALM      30.04F
6HR MIN TEMP:  54; 6HR MAX TEMP:  67;

HAWTHORNE      SUNNY     70  23  17 CALM      30.04F
$$

NVZ002-CAZ072-073-230100-
NORTHERN AND CENTRAL SIERRA

CITY           SKY/WX    TMP DP  RH WIND       PRES   REMARKS
S. LAKE TAHOE  SUNNY     61  27  27 SW9       30.15S
6HR MIN TEMP:  57; 6HR MAX TEMP:  67;

TRUCKEE        PTSUNNY   63  28  27 SW12      30.14F
                   6HR MAX TEMP:  64;

SQUAW VLY 8000 NOT AVBL
SUSANVILLE     SUNNY     66  32  28 CALM      30.04F
BLUE CANYON    MOSUNNY   56  32  40 S6        30.15F
MAMMOTH LAKES  FAIR      64  21  19 SE13      30.19S
$$

NVZ030-031-036-230100-
NORTHERN NEVADA

CITY           SKY/WX    TMP DP  RH WIND       PRES   REMARKS
ELKO           PTCLDY    64  21  19 SW6       30.10F
WINNEMUCCA     MOCLDY    65  23  20 S6        30.05F
6HR MIN TEMP:  55; 6HR MAX TEMP:  68;

WENDOVER       CLEAR     55  28  35 CALM      30.16S
$$

NVZ035-037-230100-
CENTRAL NEVADA

CITY           SKY/WX    TMP DP  RH WIND       PRES   REMARKS
ELY            CLEAR     66  21  18 SW10      30.15F
6HR MIN TEMP:  55; 6HR MAX TEMP:  68;

EUREKA           N/A     66  23  19 NE7       30.13S
6HR MIN TEMP:  53; 6HR MAX TEMP:  68;

$$

NVZ013-014-230100-
SOUTH CENTRAL NEVADA

CITY           SKY/WX    TMP DP  RH WIND       PRES   REMARKS
TONOPAH        SUNNY     69  16  13 S8        30.13F
6HR MIN TEMP:  57; 6HR MAX TEMP:  70;

$$

NVZ017-020-022-230100-
SOUTHERN NEVADA

CITY           SKY/WX    TMP DP  RH WIND       PRES   REMARKS
LAS VEGAS      PTCLDY    83  27  13 CALM      29.95F
6HR MIN TEMP:  75; 6HR MAX TEMP:  84;

N. LAS VEGAS   CLEAR     82  24  12 E5        29.98F
6HR MIN TEMP:  74; 6HR MAX TEMP:  84;

NELLIS AFB     CLEAR     83  28  13 NE5       29.97S
6HR MIN TEMP:  77; 6HR MAX TEMP:  84;

HENDERSON      CLEAR     83  29  14 NE6       30.01S
6HR MIN TEMP:  74; 6HR MAX TEMP:  85;

MERCURY        SUNNY     77  19  11 W3        30.03F
6HR MIN TEMP:  73; 6HR MAX TEMP:  80;

$$



USA.gov is the U.S. government's official web portal to all federal, state and local government web resources and services.